weather.gov     
National Weather Service

Terminal Aerodrome Forecast
NWS Homepage
This page is being discontinued on March 12, 2014.
The same data is available at this site. Please update your bookmarks.
Thank you, and we apologize for the inconvenience.
Please send an email to SR-SRH.Webmaster@noaa.gov with any concerns.


Current Version
Previous Version:    01  02  03  04  05  06  07  08  09  10  11  12  13  14  15  16  17  18  19  20  21  22  23  24  25  
[Printable]
026
FTUS44 KHGX 261120
TAFCXO
TAF
KCXO 261120Z 2612/2712 00000KT P6SM SKC
     FM261500 23009G14KT P6SM SKC
     FM262300 VRB04KT P6SM SKC
     FM270100 36005KT P6SM SKC=




026
FTUS44 KHGX 261120
TAFCXO
TAF
KCXO 261120Z 2612/2712 00000KT P6SM SKC
     FM261500 23009G14KT P6SM SKC
     FM262300 VRB04KT P6SM SKC
     FM270100 36005KT P6SM SKC=


U.S. Dept. of Commerce
NOAA National Weather Service
1325 East West Highway
Silver Spring, MD 20910
E-mail: w-nws.webmaster@noaa.gov
Page last modified: May 16, 2007
NATIONAL WEATHER SERVICE: for Safety, for Work, for Fun - FOR LIFE